Tracking 17138 objects as of 8-July-2015
HD Live streaming from Space Station

COSMOS 970 DEB

Track COSMOS 970 DEB now!
10-day predictions
COSMOS 970 DEB is classified as:


NORAD ID: 10563
Int'l Code: 1977-121E
Perigee: 875.8 km
Apogee: 1,027.3 km
Inclination: 65.9 °
Period: 103.9 minutes
Semi major axis: 7322 km
RCS: 0.0231 m2 (small)
Launch date: December 21, 1977
Source: Commonwealth of Independent States (former USSR) (CIS)

Note: This is SATELLITE DEBRIS
Your satellite tracking list
Your tracking list is empty





NASA's NSSDC Master Catalog

Two Line Element Set (TLE):
1 10563U 77121E   15186.88794648  .00000690  00000-0  64882-3 0  9994
2 10563 065.8501 010.1024 0103458 167.0259 193.3509 13.85511221882626

Source of the keplerian elements: AFSPC

N2YO: 381